User: anonymous   Login
Location: *
(58.7167°N, 26.1833°E)
Time: 21:55:41
(UTC+00:00)
Language:

COSMOS 2455 - Orbit

View from above orbital plane
View from above orbital plane
View from above satellite
View from above satellite

Ground track
Ground track

The orbit data is extracted from the following two-line orbital elements,

1 36095U 09063A   19289.45070557 -.00000082  00000-0 -46160-5 0  9997
2 36095  67.1490  54.6876 0006428 240.9140 119.1301 13.96759336505130
Epoch (UTC): 16 October 2019 10:49:00
Eccentricity: 0.0006428
inclination: 67.1490°
perigee height: 900 km
apogee height: 910 km
right ascension of ascending node: 54.6876°
argument of perigee: 240.9140°
revolutions per day: 13.96759336
mean anomaly at epoch: 119.1301°
orbit number at epoch: 50513

The dashed part of the orbit path shows where the satellite is in the earth's shadow,  

DLR